Baku, Azerbaijan

12:07 AM +04 on September 19, 2018 (GMT +0400)
Bina

Weather History for UBBB - March, 2018

Change the Weather History Date:

Friday, March 23, 2018

  Actual Average Record
Temperature  
Mean Temperature 48 °F -  
Max Temperature 55 °F - - ()
Min Temperature 41 °F - - ()
Degree Days  
Heating Degree Days 17    
Moisture  
Dew Point 38 °F    
Average Humidity 79    
Maximum Humidity 87    
Minimum Humidity 65    
Precipitation  
Precipitation 0.00 in - - ()
Sea Level Pressure  
Sea Level Pressure 30.02 in    
Wind  
Wind Speed 16 mph ()    
Max Wind Speed 31 mph    
Max Gust Speed 43 mph    
Visibility 6.1 miles    
Events Rain    
T = Trace of Precipitation, MM = Missing Value Source: Averaged Metar Reports

Daily Weather History Graph

Daily Weather History Graph

Search for Another Location

Airport or City:

Astronomy

Mar. 23, 2018 Rise Set
Actual Time 6:38 AM +04 6:54 PM +04
Civil Twilight 6:11 AM +04 7:21 PM +04
Nautical Twilight 5:39 AM +04 7:53 PM +04
Astronomical Twilight 5:07 AM +04 8:26 PM +04
Moon 10:28 AM +04 (3/23) 12:08 AM +04 (3/23)
Length of Visible Light 13h 10m
Length of Day
12h 15m
Waxing Crescent, 35% of the Moon is Illuminated
Mar 23
Waxing Crescent
Mar 24
First Quarter
Mar 31
Full
Apr 8
Last Quarter
Apr 16
New

Hourly Weather History & Observations

Time (+04) Temp. Windchill Dew Point Humidity Pressure Visibility Wind Dir Wind Speed Gust Speed Precip Events Conditions
12:00 AM 51.8 °F - 42.8 °F 71% 29.89 in - NW 16.1 mph - N/A   Clear
12:30 AM 50.0 °F - 42.8 °F 76% 29.89 in - WNW 15.0 mph - N/A   Clear
1:00 AM 49 °F - 42 °F 67% 29.89 in 6 mi West 15.7 mph - -   Mostly Cloudy
1:00 AM 50.0 °F - 42.8 °F 76% 29.89 in - WNW 16.1 mph - N/A   Clear
1:30 AM 50.0 °F - 42.8 °F 76% 29.89 in - NW 12.7 mph - N/A   Clear
2:00 AM 48.2 °F - 42.8 °F 82% 29.89 in 6.2 mi NW 12.7 mph - N/A   Mostly Cloudy
2:30 AM 48.2 °F - 42.8 °F 82% 29.92 in 6.2 mi NW 13.8 mph - N/A   Mostly Cloudy
3:00 AM 48.2 °F - 42.8 °F 82% 29.92 in - NW 12.7 mph - N/A   Clear
3:30 AM 48.2 °F - 42.8 °F 82% 29.92 in - NW 16.1 mph - N/A   Clear
4:00 AM 47 °F - 41 °F 73% 29.94 in 6 mi WNW 22.4 mph - -   Mostly Cloudy
4:00 AM 46.4 °F 38.3 °F 42.8 °F 87% 29.95 in 6.2 mi NW 23.0 mph 34.5 mph N/A   Overcast
4:30 AM 46.4 °F 38.1 °F 42.8 °F 87% 29.98 in 6.2 mi NNW 24.2 mph 35.7 mph N/A   Overcast
5:00 AM 46.4 °F 37.0 °F 41.0 °F 81% 29.98 in 6.2 mi NNW 31.1 mph 42.6 mph N/A   Overcast
5:30 AM 44.6 °F 34.6 °F 41.0 °F 87% 29.98 in 6.2 mi NNW 31.1 mph 42.6 mph N/A   Overcast
6:00 AM 44.6 °F 35.9 °F 41.0 °F 87% 29.98 in 6.2 mi NNW 23.0 mph 34.5 mph N/A   Overcast
6:30 AM 44.6 °F 34.9 °F 41.0 °F 87% 30.01 in 6.2 mi NNW 28.8 mph 40.3 mph N/A   Overcast
7:00 AM 44 °F - 40 °F 80% 30.01 in 6 mi WNW 24.6 mph - -   Overcast
7:00 AM 44.6 °F 34.7 °F 39.2 °F 81% 30.01 in 6.2 mi North 29.9 mph 41.4 mph N/A   Overcast
7:30 AM 42.8 °F 32.5 °F 39.2 °F 87% 30.01 in 6.2 mi North 28.8 mph 40.3 mph N/A   Overcast
8:00 AM 42.8 °F 32.1 °F 39.2 °F 87% 30.04 in 6.2 mi NNW 31.1 mph 42.6 mph N/A Rain Light Rain
8:30 AM 42.8 °F 33.5 °F 39.2 °F 87% 30.04 in 4.3 mi NNW 23.0 mph 34.5 mph N/A Rain Light Rain
9:00 AM 42.8 °F 32.3 °F 37.4 °F 81% 30.06 in 5.0 mi North 29.9 mph - N/A Rain Light Rain
10:00 AM 42 °F - 37 °F 75% 30.08 in 6 mi NNW 17.9 mph - -   Overcast
10:00 AM 42.8 °F 33.1 °F 37.4 °F 81% 30.09 in 6.2 mi NNW 25.3 mph - N/A   Overcast
10:30 AM 42.8 °F 33.5 °F 37.4 °F 81% 30.09 in 6.2 mi NNW 23.0 mph - N/A   Overcast
11:00 AM 42.8 °F 33.3 °F 37.4 °F 81% 30.06 in 6.2 mi NNW 24.2 mph - N/A   Overcast
11:30 AM 44.6 °F 36.1 °F 37.4 °F 76% 30.06 in 6.2 mi North 21.9 mph - N/A   Overcast
12:00 PM 44.6 °F 35.9 °F 37.4 °F 76% 30.06 in 6.2 mi NNW 23.0 mph - N/A   Overcast
12:30 PM 44.6 °F 35.9 °F 37.4 °F 76% 30.06 in 6.2 mi North 23.0 mph - N/A   Overcast
1:00 PM 44 °F - 36 °F 65% 30.08 in 6 mi NW 20.1 mph - -   Overcast
1:00 PM 44.6 °F 36.1 °F 37.4 °F 76% 30.06 in 6.2 mi NNW 21.9 mph - N/A   Overcast
1:30 PM 44.6 °F 36.6 °F 37.4 °F 76% 30.06 in 6.2 mi North 19.6 mph - N/A   Overcast
2:00 PM 44.6 °F 36.6 °F 37.4 °F 76% 30.06 in 6.2 mi North 19.6 mph - N/A   Overcast
2:30 PM 44.6 °F 37.4 °F 37.4 °F 76% 30.06 in 6.2 mi North 16.1 mph - N/A   Overcast
3:00 PM 42.8 °F 35.1 °F 35.6 °F 76% 30.04 in 6.2 mi North 16.1 mph - N/A   Overcast
3:30 PM 42.8 °F 34.8 °F 35.6 °F 76% 30.04 in 6.2 mi North 17.3 mph - N/A   Overcast
4:00 PM 42 °F - 35 °F 69% 30.05 in 6 mi NNW 13.4 mph - -   Overcast
4:00 PM 42.8 °F 35.4 °F 35.6 °F 76% 30.06 in 6.2 mi NNW 15.0 mph - N/A   Overcast
4:30 PM 42.8 °F 35.8 °F 35.6 °F 76% 30.04 in 6.2 mi North 13.8 mph - N/A   Overcast
5:00 PM 42.8 °F 35.8 °F 37.4 °F 81% 30.04 in 6.2 mi North 13.8 mph - N/A   Overcast
5:30 PM 42.8 °F 35.8 °F 35.6 °F 76% 30.04 in 6.2 mi North 13.8 mph - N/A   Overcast
6:00 PM 42.8 °F 36.6 °F 35.6 °F 76% 30.04 in 6.2 mi North 11.5 mph - N/A   Overcast
6:30 PM 41.0 °F 35.2 °F 35.6 °F 81% 30.04 in 6.2 mi North 9.2 mph - N/A   Overcast
7:00 PM 41.0 °F 35.8 °F 35.6 °F 81% 30.04 in 6.2 mi NNE 8.1 mph - N/A   Overcast
7:30 PM 41.0 °F 37.1 °F 35.6 °F 81% 30.06 in 6.2 mi NNE 5.8 mph - N/A   Overcast
8:00 PM 41.0 °F 38.0 °F 35.6 °F 81% 30.06 in 6.2 mi NNE 4.6 mph - N/A   Overcast
8:30 PM 42.8 °F 41.1 °F 37.4 °F 81% 30.06 in 6.2 mi North 3.5 mph - N/A   Overcast
9:00 PM 42.8 °F 41.1 °F 35.6 °F 76% 30.06 in 6.2 mi East 3.5 mph - N/A   Overcast
9:30 PM 42.8 °F 40.1 °F 35.6 °F 76% 30.06 in 6.2 mi ENE 4.6 mph - N/A   Overcast
10:00 PM 42 °F - 36 °F 72% 30.06 in 6 mi ENE 4.5 mph - -   Overcast
10:00 PM 42.8 °F 40.1 °F 37.4 °F 81% 30.06 in 6.2 mi ESE 4.6 mph - N/A   Overcast
10:30 PM 42.8 °F 40.1 °F 37.4 °F 81% 30.04 in 6.2 mi ESE 4.6 mph - N/A   Overcast
11:00 PM 42.8 °F 38.6 °F 37.4 °F 81% 30.04 in 6.2 mi SE 6.9 mph - N/A   Overcast
11:30 PM 42.8 °F 38.0 °F 37.4 °F 81% 30.01 in 6.2 mi SSE 8.1 mph - N/A   Overcast